[Date Prev][Date Next][Thread Prev][Thread Next] - [Date Index][Thread Index][Author Index]
2 Line ISS Keps 3-10
- Subject: [sarex] 2 Line ISS Keps 3-10
- From: "Dave Larsen PhD" <doc@xxxxxxxxxxx>
- Date: Thu, 9 Mar 2006 18:46:14 -0800
ISS
1 25544U 98067A 06069.02886057 .00018161 00000-0 12751-3 0 4954
2 25544 051.6452 337.6204 0008763 346.5237 119.5535 15.74209211417535
----
Via the sarex mailing list at AMSAT.ORG courtesy of AMSAT-NA.
To unsubscribe, send "unsubscribe sarex" to Majordomo@amsat.org
AMSAT Home